Home   Weather   Paradise   Past weeks
Flag for USA

Past Weather in Paradise, Nevada, USA — Yesterday and Last 2 Weeks

Now
70 °F

Partly cloudy.


Feels Like: 73 °F
Forecast: 76 / 60 °F
Wind: 16 mph from North

Location: McCarran International Airport

Current Time: Oct 18, 2019 at 4:58:22 am

Latest Report: Oct 18, 2019 at 3:56 am


Visibility: 10 mi

Pressure: 29.71 "Hg (27.57 "Hg at 643m altitude)

Humidity: 17%

Dew Point: 23 °F

Location of ParadiseLocation

Past Weather in Paradise — Graph

°F

Paradise Temperature Yesterday

Maximum temperature yesterday: 84 °F (at 1:56 pm)
Minimum temperature yesterday: 67 °F (at 3:56 am)
Average temperature yesterday: 75 °F

High & Low Weather Summary for the Past Weeks

 TemperatureHumidityPressure
High91 °F (Oct 9, 2:56 pm)28% (Oct 15, 2:56 am)30.26 "Hg (Oct 15, 2:56 am)
Low50 °F (Oct 11, 6:56 am)4% (Oct 11, 2:56 pm)29.47 "Hg (Oct 17, 5:56 pm)
Average71 °F13%29.89 "Hg
* Reported Oct 3 2:56 am — Oct 18 2:56 am, Paradise. Weather by CustomWeather, © 2019

Note: Actual official high and low records may vary slightly from our data, if they occured in-between our weather recording intervals... More about our weather records

Advertising

Paradise Weather History for the Previous 24 Hours

Scroll right to see more
 ConditionsComfort  
Time TempWeatherWind HumidityBarometerVisibility
2:56 am
Fri, Oct 18
70 °FPassing clouds.8 mph21%29.67 "Hg10 mi
1:56 am71 °FPassing clouds.17 mph21%29.65 "Hg10 mi
12:56 am72 °FPassing clouds.17 mph21%29.63 "Hg10 mi
11:56 pm
Thu, Oct 17
72 °FPassing clouds.12 mph21%29.62 "Hg10 mi
10:56 pm70 °FPassing clouds.6 mph23%29.58 "Hg10 mi
9:56 pm71 °FPassing clouds.13 mph23%29.57 "Hg10 mi
8:56 pm73 °FPassing clouds.17 mph19%29.52 "Hg10 mi
7:56 pm75 °FPassing clouds.22 mph16%29.49 "Hg10 mi
6:56 pm77 °FPassing clouds.16 mph16%29.48 "Hg10 mi
5:56 pm79 °FPassing clouds.15 mph16%29.47 "Hg10 mi
4:56 pm81 °FPassing clouds.15 mph15%29.48 "Hg10 mi
3:56 pm83 °FPassing clouds.14 mph12%29.50 "Hg10 mi
2:56 pm84 °FPassing clouds.17 mph12%29.50 "Hg10 mi
1:56 pm84 °FScattered clouds.13 mph12%29.54 "Hg10 mi
12:56 pm83 °FScattered clouds.16 mph14%29.57 "Hg10 mi
11:56 am80 °FBroken clouds.14 mph17%29.62 "Hg10 mi
10:56 am79 °FBroken clouds.10 mph19%29.63 "Hg10 mi
9:56 am77 °FPartly sunny.12 mph20%29.65 "Hg10 mi
8:56 am74 °FPartly sunny.10 mph22%29.65 "Hg10 mi
6:56 am69 °FPartly sunny.6 mph25%29.67 "Hg10 mi
5:56 am68 °FPassing clouds.6 mph25%29.67 "Hg10 mi
4:56 am67 °FPassing clouds.3 mph26%29.68 "Hg10 mi
Weather by CustomWeather, © 2019

See weather overview